User: anonymous   Login
Location: Orange
(33.2833°S, 149.1000°E)
Time: 11:46:31
(UTC+11:00)
Language:

Envisat - Orbit

View from above orbital plane
View from above orbital plane
View from above satellite
View from above satellite

Ground track
Ground track

The orbit data is extracted from the following two-line orbital elements,

1 27386U 02009A   22022.83085528  .00000076  00000-0  38710-4 0  9990
2 27386  98.1686  10.8933 0001198  86.7426 335.5425 14.38070423 42603
Epoch (UTC): 22 January 2022 19:56:25
Eccentricity: 0.0001198
inclination: 98.1686°
perigee height: 764 km
apogee height: 766 km
right ascension of ascending node: 10.8933°
argument of perigee: 86.7426°
revolutions per day: 14.38070423
mean anomaly at epoch: 335.5425°
orbit number at epoch: 4260

The dashed part of the orbit path shows where the satellite is in the earth's shadow,  

DLR